Temp
-2 -3 -3 -3 -2 -2 -3 -3 -3 -3 -4 -3 -4 -6 -6 -6 -7 -6 -6 -6 -6 -5 -5 -4 -4 -3 -3
-3 -4 -4 -5 -4 -3 -3 -4 -4 -3 -3 -4 -6 -7 -7 -6 -4 -6 -6 -7 -7 -6 -6 -5 -4 -4 -4
-4 -5 -5 -5 -4 -4 -4 -4 -3 -4 -4 -5 -6 -6 -4 -4 -5 -7 -7 -7 -7 -7 -6 -5 -5 -5 -5
-5 -5 -6 -6 -6 -5 -3 -4 -4 -5 -5 -5 -4 -3 -4 -5 -6 -7 -7 -7 -7 -7 -6 -6 -6 -5 -5
-5 -6 -6 -6 -6 -6 -6 -6 -5 -7 -5 -3 -3 -4 -6 -6 -7 -6 -6 -8 -7 -7 -7 -7 -7 -6 -6
-6 -7 -7 -7 -7 -7 -7 -7 -7 -6 -6 -3 -5 -5 -6 -7 -7 -7 -7 -8 -8 -8 -8 -7 -7 -7 -7
-6 -7 -7 -7 -7 -7 -7 -7 -6 -5 -6 -5 -5 -5 -6 -6 -6 -7 -7 -8 -8 -8 -7 -7 -7 -7 -7
-6 -6 -7 -7 -7 -7 -7 -7 -6 -5 -7 -7 -7 -6 -6 -6 -7 -8 -8 -8 -8 -7 -7 -7 -7 -7 -7
-8 -7 -7 -7 -6 -6 -7 -7 -6 -6 -7 -8 -8 -9 -7 -6 -7 -7 -8 -8 -8 -7 -7 -7 -7 -8 -7
-7 -7 -7 -7 -9 -9 -9 -9 -10 -10 -8 -9 -9 -10 -10 -8 -7 -7 -8 -8 -8 -8 -8 -8 -8 -8 -8
-6 -7 -8 -8 -8 -7 -8 -10 -10 -10 -8 -10 -10 -10 -10 -10 -9 -8 -9 -8 -8 -9 -8 -8 -8 -8 -8
-7 -8 -8 -7 -7 -7 -8 -8 -9 -10 -9 -10 -10 -10 -10 -10 -10 -9 -8 -9 -9 -8 -8 -8 -8 -8 -8
-8 -7 -7 -7 -8 -8 -8 -8 -8 -9 -10 -10 -10 -10 -10 -10 -10 -10 -10 -8 -9 -9 -9 -9 -9 -8 -8
-8 -8 -8 -8 -9 -9 -9 -9 -9 -8 -9 -10 -11 -11 -11 -10 -10 -10 -9 -9 -9 -10 -10 -9 -9 -9 -9
-8 -9 -9 -9 -9 -9 -10 -10 -11 -11 -10 -10 -10 -10 -9 -10 -10 -10 -10 -10 -10 -11 -10 -10 -9 -9 -9
-9 -9 -10 -10 -10 -10 -11 -11 -12 -11 -11 -11 -10 -9 -9 -8 -10 -10 -10 -10 -10 -11 -11 -10 -10 -10 -9
-10 -10 -10 -10 -10 -10 -11 -11 -11 -11 -11 -11 -11 -11 -11 -11 -9 -10 -11 -10 -10 -10 -10 -10 -10 -10 -9
Height
1525 1523 1519 1515 1511 1508 1505 1501 1498 1493 1489 1485 1482 1478 1475 1471 1466 1463 1461 1459 1456 1452 1449 1446 1442 1438 1433
1521 1519 1515 1511 1506 1504 1502 1500 1496 1492 1488 1479 1478 1476 1469 1464 1460 1458 1456 1453 1450 1447 1444 1441 1438 1434 1430
1519 1516 1515 1509 1505 1502 1498 1496 1492 1489 1484 1478 1475 1470 1465 1460 1457 1455 1452 1449 1446 1443 1441 1437 1433 1428 1425
1519 1515 1512 1507 1502 1499 1497 1496 1490 1487 1483 1477 1471 1466 1462 1459 1456 1452 1448 1445 1442 1440 1437 1433 1428 1425 1421
1516 1513 1512 1507 1502 1498 1492 1493 1487 1485 1480 1474 1467 1463 1460 1457 1453 1450 1446 1443 1440 1436 1433 1428 1425 1421 1417
1513 1509 1509 1508 1502 1497 1492 1488 1484 1482 1473 1469 1465 1460 1458 1455 1452 1448 1445 1441 1437 1432 1428 1424 1420 1416 1412
1511 1509 1508 1502 1502 1495 1493 1487 1482 1478 1472 1466 1464 1459 1456 1453 1449 1447 1443 1439 1434 1429 1425 1420 1416 1412 1408
1510 1507 1505 1501 1497 1492 1490 1487 1481 1477 1472 1464 1462 1458 1454 1451 1448 1445 1441 1437 1432 1427 1422 1417 1412 1407 1403
1506 1505 1502 1498 1494 1491 1489 1484 1475 1473 1469 1466 1462 1456 1452 1448 1447 1443 1438 1434 1430 1424 1419 1414 1409 1404 1399
1503 1502 1500 1495 1494 1492 1487 1481 1477 1471 1470 1466 1461 1457 1448 1444 1443 1439 1435 1431 1427 1422 1417 1412 1407 1402 1397
1501 1498 1497 1496 1493 1489 1485 1481 1477 1473 1469 1466 1459 1456 1454 1444 1438 1436 1433 1427 1422 1418 1414 1409 1406 1401 1396
1498 1498 1496 1492 1489 1486 1482 1478 1475 1470 1466 1464 1459 1455 1450 1443 1437 1432 1428 1424 1421 1416 1411 1407 1403 1399 1396
1497 1495 1492 1489 1486 1483 1479 1475 1471 1468 1464 1461 1456 1451 1448 1442 1435 1430 1425 1420 1419 1415 1408 1404 1400 1397 1393
1495 1492 1490 1487 1484 1480 1475 1471 1467 1463 1461 1457 1453 1449 1443 1438 1434 1429 1425 1421 1416 1412 1406 1403 1399 1396 1393
1492 1490 1487 1484 1481 1477 1473 1469 1465 1461 1456 1453 1449 1445 1441 1435 1430 1427 1423 1420 1416 1410 1405 1401 1399 1395 1392
1490 1488 1485 1482 1479 1475 1471 1468 1463 1460 1456 1451 1446 1441 1437 1434 1430 1426 1423 1418 1413 1409 1405 1401 1397 1395 1392
1488 1486 1483 1481 1477 1473 1470 1466 1462 1459 1455 1450 1446 1443 1437 1432 1429 1427 1421 1417 1412 1408 1405 1402 1398 1396 1394
Wind_Speed
13 16 18 20 19 20 20 21 21 22 22 23 23 21 21 22 23 23 23 24 24 25 25 26 26 26 25
13 15 16 16 18 19 20 20 21 22 23 21 20 23 22 23 25 24 22 23 25 26 25 26 25 25 24
15 14 16 16 18 18 20 21 21 20 19 18 22 22 23 24 24 23 22 24 26 26 23 24 24 23 22
14 15 14 13 17 20 23 22 23 18 20 24 20 23 22 21 23 23 25 27 24 23 22 23 22 21 20
14 14 14 16 19 20 22 23 24 14 24 23 23 23 22 22 23 23 25 22 21 22 23 24 25 25 24
12 11 14 18 18 21 21 24 27 20 30 27 24 24 23 23 22 22 23 23 23 22 22 23 24 24 25
13 14 16 16 19 20 20 21 22 26 26 30 23 24 23 25 16 19 22 22 23 23 24 24 23 23 23
14 15 15 16 17 18 20 21 22 20 21 24 26 24 25 21 14 19 21 22 23 25 25 23 23 23 23
13 14 13 14 16 19 19 22 26 25 13 19 28 29 28 19 14 24 21 19 23 23 21 23 24 23 22
9 11 13 14 14 16 21 22 22 24 14 24 28 27 26 20 31 28 19 23 23 19 23 22 22 23 25
11 11 12 14 14 16 17 18 19 21 23 20 27 26 23 33 33 30 22 27 21 22 25 24 22 21 22
11 11 13 15 16 17 18 18 19 21 21 19 24 23 25 29 32 31 29 25 21 20 30 24 20 19 20
11 13 15 17 18 19 20 19 18 17 14 18 20 22 24 28 31 30 29 24 17 30 29 23 20 19 23
12 14 15 17 18 21 22 22 21 20 16 15 16 20 23 23 22 25 20 22 28 29 25 21 20 16 19
13 15 16 18 19 20 21 22 20 22 22 21 20 20 17 17 19 18 20 22 27 24 21 21 19 18 18
13 14 16 18 20 21 20 20 20 20 22 24 22 24 24 18 12 15 19 23 25 22 20 20 19 16 16
13 14 15 17 18 19 21 20 19 20 21 19 19 20 25 27 24 14 20 23 25 23 17 19 16 12 15
Wind_Direction
293 301 306 317 326 326 330 331 328 329 336 328 329 326 318 310 316 320 322 317 319 320 318 315 313 310 309
312 311 317 310 319 328 332 331 330 333 333 341 330 320 322 325 326 324 320 316 317 319 320 315 309 306 305
318 309 311 325 324 331 330 330 331 331 335 332 328 332 336 336 330 325 319 316 315 317 316 318 309 309 310
309 318 321 325 321 327 330 331 333 334 333 335 336 334 338 338 333 327 321 318 318 319 312 313 319 320 316
314 320 320 317 324 327 325 327 334 328 329 344 339 339 345 336 330 328 330 329 319 309 305 312 309 305 307
310 302 309 315 316 323 330 331 334 336 335 344 343 338 339 335 324 324 327 327 326 325 324 320 315 309 306
306 313 303 309 313 321 323 328 331 335 335 328 342 334 338 332 323 322 328 328 326 325 324 322 317 312 308
297 302 307 313 315 322 325 321 323 333 329 322 338 335 336 339 343 323 323 325 327 326 324 324 322 317 315
311 315 315 316 325 323 321 326 331 336 342 321 331 329 333 343 324 338 330 336 332 329 332 329 329 327 327
310 311 321 329 325 316 324 329 331 329 329 325 322 327 326 329 330 341 334 324 326 327 331 330 336 331 325
320 324 315 307 314 321 323 320 313 306 323 311 309 317 311 313 323 334 323 326 331 324 333 333 332 332 330
318 307 311 323 331 330 326 320 315 311 316 313 303 309 310 312 314 323 329 336 334 318 322 326 333 335 337
313 321 327 328 330 332 333 325 321 323 317 309 310 310 307 307 308 319 323 335 329 322 326 338 335 333 332
321 325 327 331 333 333 336 337 331 334 335 325 317 314 312 314 314 314 329 327 322 324 331 343 346 337 332
322 326 329 332 335 337 335 337 334 334 337 339 334 332 335 330 323 325 332 325 323 329 338 336 340 340 336
320 324 326 330 336 339 337 336 334 342 342 331 340 345 349 0 352 333 328 327 337 341 343 336 337 348 353
316 320 324 327 336 337 340 334 338 342 333 342 348 342 340 340 347 347 331 339 342 346 354 359 348 6 21